Overview Statistics Trail Chart Weather Telemetry Raw packets
 

This is the latest recevied weather packets stored in our database for station/object CE3TDM-10. If no packets are shown the sender has not sent any weather packets the latest 10 day(s).

<< 9 10 11 12 13 14 15 >>
Time Temp. Humidity Pressure Rain* Wind** Luminosity Snow
1788308217 26.11° C 34% 922.7 hPa - - - -
1788307398 26.11° C 34% 922.7 hPa - - - -
1788307317 26.11° C 34% 922.7 hPa - - - -
1788306664 26.11° C 34% 922.3 hPa - - - -
1788306468 26.11° C 34% 922.3 hPa - - - -
1788306417 26.11° C 34% 922.3 hPa - - - -
1788305516 26.11° C 34% 922.2 hPa - - - -
1788304618 26.11° C 33% 922.5 hPa - - - -
1788303716 25.56° C 34% 922.6 hPa - - - -
1788302816 25.56° C 34% 922.7 hPa - - - -
1788301916 25° C 33% 922.6 hPa - - - -
1788301016 25° C 33% 922.6 hPa - - - -
1788300116 25.56° C 32% 922.3 hPa - - - -
1788299216 25.56° C 32% 922.1 hPa - - - -
1788298316 26.11° C 32% 922.1 hPa - - - -
1788297416 26.67° C 32% 922.5 hPa - - - -
1788296516 26.67° C 33% 922.1 hPa - - - -
1788295616 27.22° C 32% 922.4 hPa - - - -
1788294716 27.22° C 32% 922.7 hPa - - - -
1788293815 27.22° C 32% 922.5 hPa - - - -
1788292915 27.22° C 32% 922.1 hPa - - - -
1788292015 27.78° C 32% 922.4 hPa - - - -
1788289315 28.89° C 31% 922.5 hPa - - - -
1788288415 29.44° C 31% 922.8 hPa - - - -
1788287515 29.44° C 31% 923.1 hPa - - - -

* Rain since midnight (hover to see other rain measurements)
** Current wind speed in m/s (hover to see current wind gust speed)